Terminal Aerodrome Forecast
Issued by NWS Twin Cities, MN

Home | Current Version | Previous Version | Text Only | Print | Product List | Glossary On
Versions: 1 2 3 4 5 6 7 8 9 10 11 12 13 14 15 16 17 18 19 20 21 22
000
FTUS43 KMPX 281100
TAFMSP
TAF
KMSP 281132Z 2812/2918 24005KT P6SM SCT050 BKN080
     FM281600 34004KT P6SM SCT018 BKN025
     FM282000 01006KT P6SM SCT250
     FM290800 36007KT P6SM BKN120=

USA.gov is the U.S. government's official web portal to all federal, state and local government web resources and services.